#timestamp,LO_Frequency,Hit,StdDev 
1577167215.4,286047001.4,N
1577167235.3,286046995.6,N
1577167255.1,286046994.7,N
1577167275.9,286046994.5,N
1577167295.7,286046997.4,N
1577167315.5,286046998.5,N
1577167335.4,286046999.7,N
1577167355.2,286047000.8,N
1577167375.0,286046996.0,N
1577167375.9,286046996.0,N
1577167395.8,286046990.3,N
1577167415.6,286046988.6,N
1577167435.4,286046991.4,N
1577167455.3,286046997.5,N
1577167475.1,286047003.1,N
1577167495.9,286047007.7,N
1577167515.7,286047010.0,N
1577167535.5,286047010.1,N
1577167555.4,286047003.7,N
1577167575.2,286047013.9,N
1577167595.0,286047019.8,N
1577167596.0,286047019.8,N
1577167615.8,286047023.1,N
1577167635.6,286047016.1,N
1577167655.5,286047018.4,N
1577167675.3,286047020.7,N
1577167695.1,286047024.6,N
1577167715.9,286047025.2,N
1577167735.7,286047021.7,N
1577167755.5,286047021.3,N
1577167775.4,286047020.8,N
1577167795.2,286047018.9,N
1577167815.1,286047022.0,N
1577167816.0,286047022.0,N
1577167835.8,286047023.3,N
1577167855.6,286047013.8,N
1577167875.5,286047009.4,N
1577167895.3,286047010.2,N
1577167915.1,286047006.7,N
1577167935.9,286047012.5,N
1577167955.7,286047023.3,N
1577167975.6,286047025.2,N
1577167995.4,286047018.0,N
1577168015.2,286047026.5,Y
1577168035.1,286047014.7,P
1577168036.0,286047014.7,P
1577168055.8,286047014.9,P
1577168075.7,286047016.3,Y
1577168095.5,286046994.3,P
1577168115.3,286046990.5,N
1577168135.2,286046991.1,N
1577168155.0,286046995.9,N
1577168155.9,286046995.9,N
1577168175.8,286046995.2,N
1577168195.6,286046996.1,N
1577168215.4,286046987.5,N
1577168235.3,286046986.2,N
1577168255.1,286046984.9,N
1577168275.8,286046984.0,N
1577168295.7,286046986.4,N
1577168315.5,286046988.9,N
1577168335.4,286046987.4,N
1577168355.2,286046982.8,N
1577168375.0,286046988.7,N
1577168375.9,286046988.7,N
1577168395.8,286046985.6,N
1577168415.6,286046977.7,Y
1577168435.4,286046983.9,P
1577168455.3,286046984.0,P
1577168475.1,286046986.3,P
1577168495.9,286046993.2,N
1577168515.7,286046992.7,N
1577168535.5,286046997.6,N
1577168555.4,286046997.4,N
1577168575.2,286046989.6,N
1577168595.1,286046982.3,Y
1577168596.0,286046986.3,P
1577168615.8,286046993.3,P
1577168635.6,286046990.1,P
1577168655.5,286046989.5,Y
1577168675.3,286046997.1,P
1577168695.2,286046996.4,N
1577168715.9,286047000.0,N
1577168735.7,286047005.4,N
1577168755.6,286047003.3,N
1577168775.4,286047002.5,N
1577168795.3,286047010.7,N
1577168815.1,286047021.3,Y
1577168835.8,286047025.0,P
1577168855.7,286047025.0,N
1577168875.5,286047034.0,N
1577168895.4,286047037.4,Y
1577168915.2,286047015.3,P
1577168935.0,286047013.4,P
1577168935.9,286047013.4,P
1577168955.1,286047019.5,Y
1577168956.0,286047019.5,P
1577168975.8,286047003.3,N
1577168995.7,286047006.9,N
1577169015.5,286047001.0,N
1577169035.4,286046999.3,N
1577169055.2,286046991.1,N
1577169075.0,286046990.6,N
1577169075.9,286046990.6,N
1577169095.8,286046989.6,N
1577169115.6,286046991.9,N
1577169135.4,286046987.0,N
1577169155.3,286046986.3,N
1577169175.1,286046985.4,N
1577169195.9,286046993.3,N
1577169215.7,286046992.2,N
1577169235.5,286046994.7,N
1577169255.4,286046992.1,N
1577169275.2,286046993.2,N
1577169295.0,286046988.8,N
1577169295.9,286046988.8,N
1577169315.8,286046988.4,N
1577169335.6,286046990.2,N
1577169355.5,286046989.3,N
1577169375.3,286046994.0,N
1577169395.1,286046987.5,N
1577169415.9,286046987.3,N
1577169435.7,286046986.9,N
1577169455.5,286046987.6,N
1577169475.4,286046984.1,N
1577169495.2,286046992.7,N
1577169515.1,286046994.8,N
1577169516.0,286046994.8,N
1577169535.8,286046995.8,N
1577169555.6,286046997.7,N
1577169575.5,286046998.2,N
1577169595.3,286047001.0,N
1577169615.2,286047000.2,N
1577169635.9,286046999.1,N
1577169655.7,286046991.9,N
1577169675.6,286046990.4,N
1577169695.4,286046990.0,N
1577169715.3,286046987.4,N
1577169735.1,286046992.2,N
1577169736.0,286046992.2,N
1577169755.8,286046990.8,N
1577169775.7,286046988.7,N
1577169795.5,286046986.3,Y
1577169815.3,286046995.0,P
1577169835.2,286047000.1,N
1577169855.0,286047000.6,N
1577169855.9,286047000.6,N
1577169875.8,286046995.1,N
1577169895.6,286046992.8,N
1577169915.4,286046990.9,N
1577169935.3,286046988.7,N
1577169955.1,286046992.1,N
1577169975.9,286046986.7,Y
1577169995.7,286046988.5,P
1577170015.5,286046986.8,P
1577170035.4,286046983.1,P
1577170055.2,286046989.4,N
1577170075.0,286046989.1,N
1577170075.9,286046989.1,Y
1577170095.8,286047002.1,P
1577170115.6,286047006.7,N
1577170135.5,286047004.9,N
1577170155.3,286047002.7,N
1577170175.1,286046996.6,N
1577170195.9,286046997.5,N
1577170215.7,286046997.2,N
1577170235.6,286046990.6,N
1577170255.4,286046987.0,N
1577170275.2,286046991.3,N
1577170295.1,286046990.7,N
1577170296.0,286046990.7,N
1577170315.8,286046988.6,N
1577170335.6,286046990.9,N
1577170355.5,286046991.6,N
1577170375.3,286046992.2,N
1577170395.2,286046993.5,N
1577170415.9,286046993.1,N
1577170435.7,286046992.7,N
1577170455.6,286046993.4,N
1577170475.4,286047000.7,N
1577170495.2,286046998.7,N
1577170515.1,286046997.3,N
1577170516.0,286046997.3,N
1577170535.8,286047001.1,N
1577170555.7,286046995.1,N
1577170575.5,286047000.3,N
1577170595.3,286047004.9,N
1577170615.2,286047000.9,N
1577170635.0,286047000.7,N
1577170635.9,286047000.7,N
1577170655.7,286047000.2,N
1577170675.6,286046996.9,N
1577170695.4,286046997.0,N
1577170715.3,286046993.6,N
1577170735.1,286046998.2,N
1577170736.0,286046998.2,N
1577170755.8,286046997.7,N
1577170775.7,286046992.3,N
1577170795.5,286046998.3,N
